Hourly Data Report for September 09, 2017

All times are specified in Local Standard Time (LST). Add 1 hour to adjust for Daylight Saving Time where and when it is observed.

EUREKA CLIMATE
NUNAVUT

79°59'21.000" N
85°56'02.000" W
10.00 m
2401199
71613
NEK

Download Data

Hourly Data (September 2017)
Hourly Data Report for September 9, 2017
Temp Definition
°C
Dew Point Temp Definition
°C
Rel Hum Definition
%
Wind Dir Definition
10's deg

Wind Spd Definition
km/h
Visibility Definition
km
Stn Press Definition
kPa
Hmdx Definition


Wind Chill Definition


Weather Definition


TIME
00:00 -13.4 -14.5 91 4 6   100.26   -17 LegendNANA
01:00 -13.6 -14.9 90 6 6   100.23   -18 LegendNANA
02:00 -13.1 -14.0 93 10 8   100.20   -18 LegendNANA
03:00 -14.2 -15.4 91 7 4   100.17   -17 LegendNANA
04:00 -15.2 -16.6 88 4 5   100.13   -19 LegendNANA
05:00 -13.8 -15.1 90 7 2   100.11   -15 LegendNANA
06:00 -14.8 -16.9 84 6 3   100.05   -17 LegendNANA
07:00 -13.0 -15.2 84 12 6   100.02   -17 LegendNANA
08:00 -13.3 -15.2 86 13 9   99.98   -19 LegendNANA
09:00 -12.8 -15.1 83 12 7   99.93   -17 LegendNANA
10:00 -12.1 -14.6 81 13 6   99.89   -16 LegendNANA
11:00 -11.9 -14.4 82 13 8   99.85   -17 LegendNANA
12:00 -11.5 -14.2 80 13 6   99.80   -15 LegendNANA
13:00 -11.2 -14.6 76 13 4   99.77   -14 LegendNANA
14:00 -10.3 -13.4 78 13 4   99.72   -13 LegendNANA
15:00 -10.7 -13.5 80 14 5   99.70   -14 LegendNANA
16:00 -10.3 -13.3 78 12 3   99.66   -12 LegendNANA
17:00 -10.9 -13.3 82 12 4   99.62   -13 LegendNANA
18:00 -10.8 -12.8 85 11 4   99.61   -13 LegendNANA
19:00 -11.9 -13.3 89 7 3   99.59   -14 LegendNANA
20:00 -12.8 -14.0 91 4 5   99.56   -16 LegendNANA
21:00 -13.3 -14.4 91 5 4   99.54   -16 LegendNANA
22:00 -13.3 -14.1 93 10 4   99.54   -16 LegendNANA
23:00 -13.6 -14.5 93 8 7   99.54   -18 LegendNANA

Notes on Data Quality.

Legend

  • E = Estimated
  • M = Missing
  • NA = Not Available
  • ‡ = Partner data that is not subject to review by the National Climate Archives
Date modified: